User: anonymous
Location: Unspecified
(0.0000°N, 0.0000°E)
Time: 12:35:48
(UTC+02:00)
Language:

Cosmos 1782 Rocket - Orbit

View from above orbital plane
View from above orbital plane
View from above satellite
View from above satellite

Ground track
Ground track

The orbit data is extracted from the following two-line orbital elements,

1 16987U 86074B   14107.95574818  .00000629  00000-0  75364-4 0  3277
2 16987 082.5149 312.9030 0020041 108.4504 031.2322 14.82363337487135
Epoch (UTC): 17 April 2014 22:56:16
Eccentricity: 0.0020041
inclination: 82.5149°
perigee height: 608 km
apogee height: 636 km
right ascension of ascending node: 312.9030°
argument of perigee: 108.4504°
revolutions per day: 14.82363337
mean anomaly at epoch: 31.2322°
orbit number at epoch: 48713

The dashed part of the orbit path shows where the satellite is in the earth's shadow,  

DLR